Voltar ao catálogo

THOR ABLESTAR DEB

AtivoLEO
NORAD 126·DEBRIS·🇺🇸 United States

Lançado Jun 29, 1961 de Cape Canaveral Space Force Station

Loading…

Próximas Passagens (próximas 24 horas)

TLE

AtualizadoSource: Space-Track

Época: Sep 9, 2026, 15:48 UTC

1 00126U 61015L   26252.65887041  .00000785  00000-0  24528-3 0  9992
2 00126  66.7069 227.4895 0061739 199.5525 160.3213 14.45037517376801

Acompanhe THOR ABLESTAR DEB em tempo real com AllMySat

Download on the App Store